This demonstration page uses our WeatherBlox Daily Observations layout. Learn more.

Left ArrowRight Arrow

Hourly Observations for May 6, 2017

Temp ( °F °C ) Dew Point ( °F °C ) Humidity (%) Winds ( mph kmh ) Pressure ( in mb ) Visibility ( mi km ) Precip ( " mm )
12:15 am 00:15 Clear 54 12.1 42 5.5 64 64 SSE 6 9 29.91 1013 10 16 N/A
12:35 am 00:35 Clear 55 12.7 42 5.5 62 62 SSE 6 9 29.91 1013 10 16 N/A
12:55 am 00:55 Clear 55 12.7 42 5.5 62 62 SSE 8 13 29.91 1013 10 16 N/A
1:15 am 01:15 Clear 53 11.6 42 5.5 66 66 S 5 7 29.94 1014 10 16 N/A
1:35 am 01:35 Clear 53 11.5 41 5.2 66 66 S 5 7 29.94 1014 10 16 N/A
1:55 am 01:55 Clear 53 11.8 41 5.2 64 64 S 5 7 29.94 1014 10 16 N/A
2:15 am 02:15 Clear 53 11.5 41 5.1 65 65 S 5 7 29.94 1014 10 16 N/A
2:35 am 02:35 Clear 51 10.8 41 5 68 68 S 5 7 29.94 1014 10 16 N/A
2:55 am 02:55 Clear 53 11.5 41 5 65 65 SSW 7 11 29.94 1014 10 16 N/A
3:15 am 03:15 Clear 52 11.2 41 5.2 67 67 N N/A 29.94 1014 10 16 N/A
3:35 am 03:35 Clear 52 10.9 42 5.3 69 69 SSW 3 6 29.94 1014 10 16 N/A
3:55 am 03:55 Clear 53 11.5 42 5.5 67 67 SSW 5 7 29.94 1014 10 16 N/A
4:15 am 04:15 Clear 53 11.4 42 5.7 68 68 SW 5 7 29.94 1014 10 16 N/A
4:35 am 04:35 Clear 52 11 42 5.8 71 71 SW 5 7 29.94 1014 10 16 N/A
4:55 am 04:55 Clear 53 11.5 43 6 69 69 N N/A 29.94 1014 10 16 N/A
5:15 am 05:15 Clear 53 11.4 43 6 70 70 N N/A 29.94 1014 10 16 N/A
5:35 am 05:35 Clear 49 9.6 42 5.3 75 75 N N/A 29.94 1014 10 16 N/A
5:55 am 05:55 Clear 48 8.8 42 5.5 80 80 N N/A 29.94 1014 10 16 N/A
6:15 am 06:15 Clear 49 9.2 43 5.9 80 80 W 5 7 29.94 1014 10 16 N/A
6:35 am 06:35 Sunny 49 9.5 41 5 74 74 W 5 7 29.94 1014 10 16 N/A
6:55 am 06:55 Sunny 51 10.3 41 5.1 70 70 W 5 7 29.94 1014 10 16 N/A
7:15 am 07:15 Sunny 51 10.7 42 5.8 72 72 W 5 7 29.94 1014 10 16 N/A
7:35 am 07:35 Sunny 54 12.1 46 7.6 74 74 W 5 7 29.97 1015 10 16 N/A
7:55 am 07:55 Sunny 58 14.6 47 8.2 66 66 N N/A 29.91 1013 10 16 N/A
8:15 am 08:15 Sunny 62 16.5 46 8 57 57 N N/A 29.91 1013 10 16 N/A
8:35 am 08:35 Sunny 65 18.6 47 8.2 51 51 N N/A 29.91 1013 10 16 N/A
8:55 am 08:55 Sunny 67 19.7 46 7.8 46 46 N N/A 29.88 1012 10 16 N/A
9:15 am 09:15 Sunny 70 21.2 46 7.6 42 42 N N/A 29.88 1012 10 16 N/A
9:35 am 09:35 Sunny 72 22.1 43 6.1 36 36 N N/A 29.88 1012 10 16 N/A
9:55 am 09:55 Sunny 73 23 44 6.8 35 35 N N/A 29.85 1011 10 16 N/A
10:15 am 10:15 Sunny 74 23.4 43 6 33 33 N N/A 29.83 1010 10 16 N/A
10:35 am 10:35 Sunny 75 24 43 6.3 32 32 N N/A 29.85 1011 10 16 N/A
10:55 am 10:55 Sunny 76 24.7 44 6.6 31 31 N N/A 29.83 1010 10 16 N/A
11:15 am 11:15 Sunny 77 24.9 41 5 28 28 ESE 6 9 29.83 1010 10 16 N/A
11:35 am 11:35 Sunny 78 25.3 41 5.2 27 27 N N/A 29.83 1010 10 16 N/A
11:55 am 11:55 Sunny 78 25.7 43 5.9 28 28 ENE 5 7 29.83 1010 10 16 N/A
12:15 pm 12:15 Sunny 79 26 42 5.4 27 27 N N/A 29.83 1010 10 16 N/A
12:35 pm 12:35 Sunny 79 25.9 42 5.7 27 27 N N/A 29.83 1010 10 16 N/A
12:55 pm 12:55 Sunny 80 26.4 44 6.6 28 28 ESE 6 9 29.80 1009 10 16 N/A
1:15 pm 13:15 Sunny 80 26.7 43 6 27 27 ESE 12 19 29.77 1008 10 16 N/A
1:35 pm 13:35 Sunny 81 27.2 42 5.7 25 25 SE 8 13 29.77 1008 10 16 N/A
1:55 pm 13:55 Sunny 81 27.2 40 4.6 23 23 SE 6 9 29.77 1008 7 11 N/A
2:15 pm 14:15 Sunny 82 27.6 41 5.1 24 24 N N/A 29.77 1008 10 16 N/A
2:35 pm 14:35 Sunny 82 27.9 40 4.5 22 22 S 12 19 29.77 1008 10 16 N/A
2:55 pm 14:55 Sunny 82 27.7 40 4.5 23 23 E 3 6 29.77 1008 10 16 N/A
3:15 pm 15:15 Sunny 82 27.8 40 4.3 22 22 S 12 19 29.77 1008 10 16 N/A
3:35 pm 15:35 Sunny 82 27.8 40 4.4 22 22 SW 6 9 29.74 1007 10 16 N/A
3:55 pm 15:55 Sunny 82 28 38 3.6 21 21 SE 8 13 29.74 1007 10 16 N/A
4:15 pm 16:15 Sunny 82 28 39 4.1 22 22 SSE 9 15 29.74 1007 10 16 N/A
4:35 pm 16:35 Sunny 82 28 40 4.7 23 23 S 10 17 29.74 1007 10 16 N/A
4:55 pm 16:55 Sunny 82 28 39 4.1 22 22 S 9 15 29.71 1006 10 16 N/A
5:15 pm 17:15 Sunny 82 27.9 40 4.4 22 22 SSW 7 11 29.71 1006 10 16 N/A
5:35 pm 17:35 Sunny 82 27.9 39 4 22 22 S 10 17 29.71 1006 10 16 N/A
5:55 pm 17:55 Sunny 82 27.7 40 4.2 22 22 SSE 8 13 29.71 1006 10 16 N/A
6:15 pm 18:15 Sunny 82 27.7 39 3.9 22 22 S 12 19 29.71 1006 10 16 N/A
6:35 pm 18:35 Sunny 81 27.3 40 4.2 23 23 SSE 6 9 29.71 1006 10 16 N/A
6:55 pm 18:55 Sunny 81 27.1 39 4.1 23 23 S 9 15 29.71 1006 10 16 N/A
7:15 pm 19:15 Sunny 80 26.6 38 3.6 23 23 S 12 19 29.71 1006 10 16 N/A
7:35 pm 19:35 Sunny 79 26.3 39 3.8 23 23 SSE 13 20 29.68 1005 10 16 N/A
7:55 pm 19:55 Sunny 78 25.4 40 4.4 26 26 SSE 9 15 29.71 1006 10 16 N/A
8:15 pm 20:15 Sunny 74 23.5 41 5 30 30 SSE 8 13 29.74 1007 10 16 N/A
8:35 pm 20:35 Sunny 71 21.6 41 5.2 34 34 SSE 8 13 29.74 1007 10 16 N/A
8:55 pm 20:55 Clear 67 19.6 42 5.8 41 41 SSE 8 13 29.77 1008 10 16 N/A
9:15 pm 21:15 Clear 67 19.2 43 6.1 43 43 SE 9 15 29.77 1008 10 16 N/A
9:35 pm 21:35 Clear 65 18.1 44 6.4 47 47 SSE 9 15 29.83 1010 10 16 N/A
9:55 pm 21:55 Clear 65 18.1 44 6.6 47 47 SSE 10 17 29.83 1010 10 16 N/A
10:15 pm 22:15 Clear 63 17.3 45 7 51 51 SSE 9 15 29.83 1010 10 16 N/A
10:35 pm 22:35 Clear 64 17.5 45 7.1 51 51 SSE 9 15 29.83 1010 10 16 N/A
10:55 pm 22:55 Clear 62 16.7 45 7.1 53 53 SSE 9 15 29.83 1010 10 16 N/A
11:15 pm 23:15 Clear 62 16.5 45 7.2 54 54 SSE 9 15 29.83 1010 10 16 N/A
11:35 pm 23:35 Clear 61 16 45 7.1 56 56 SSE 9 15 29.83 1010 10 16 N/A
11:55 pm 23:55 Clear 60 15.7 45 7.1 57 57 SSE 9 15 29.83 1010 10 16 N/A

Powered by AerisWeather